Location: Audignicourt
(49.4788°N, 3.1340°E)
Time: 10:14:12
(UTC+00:00)

Cosmos 1452 Rocket - Pass Details

Date: 15 May 2026
Orbit: 763 x 770 km, 74.1° (Epoch: 5 June)

Event Time Altitude Azimuth Distance (km) Brightness Sun altitude
Rises 20:02:48 0° 213° (SSW) 3,216 6.7 -5.9°
Reaches altitude 10° 20:05:12 10° 217° (SW) 2,294 6.0 -6.2°
Maximum altitude 20:10:20 59° 297° (WNW) 881 4.2 -6.8°
Drops below altitude 10° 20:15:31 10° 18° (NNE) 2,311 6.3 -7.5°
Sets 20:17:57 0° 22° (NNE) 3,242 7.0 -7.7°
